Weather reports worldwide

Advertisment
Exeter Airport No. 2, United Kingdom (3844): temperature & dewpoint: 06.11.2019 15:00:00 - 12.11.2019 15:00:00 (GMT)Exeter Airport No. 2, United Kingdom (3844): wind speed & gusts: 06.11.2019 15:00:00 - 12.11.2019 15:00:00 (GMT)Exeter Airport No. 2, United Kingdom (3844): wind direction: 06.11.2019 15:00:00 - 12.11.2019 15:00:00 (GMT)Exeter Airport No. 2, United Kingdom (3844): reduced air pressure: 06.11.2019 15:00:00 - 12.11.2019 15:00:00 (GMT)Exeter Airport No. 2, United Kingdom (3844): visibility: 06.11.2019 15:00:00 - 12.11.2019 15:00:00 (GMT)Exeter Airport No. 2, United Kingdom (3844): sunshine duration: 06.11.2019 15:00:00 - 12.11.2019 15:00:00 (GMT)Exeter Airport No. 2, United Kingdom (3844): precipitation: 06.11.2019 15:00:00 - 12.11.2019 15:00:00 (GMT)
Date & Time tt [°C] td [°C] ff [km/h] ff [kn] fx [km/h] fx [kn] dd ppp [hPa] vv [km] sd [min] rr [mm]
12.11.2019 15:00:00 8,6 4,3 22 12 - - WNW 1001,5 16 0 0,0
12.11.2019 14:00:00 8,8 3,4 26 14 57 31 WNW 1001,5 22 6 0,0
12.11.2019 13:00:00 9,0 2,5 26 14 54 29 WNW 1001,7 30 36 0,0
12.11.2019 12:00:00 8,9 3,1 24 13 61 33 WNW 1002,0 19 60 0,0
12.11.2019 11:00:00 8,3 3,6 26 14 - - W 1002,4 21 54 0,0
12.11.2019 10:00:00 5,7 2,7 22 12 - - W 1003,0 30 24 0,4
12.11.2019 09:00:00 4,3 2,7 5 3 - - WSW 1003,3 35 6 0,2
12.11.2019 08:00:00 4,7 2,2 21 11 - - W 1003,3 40 0 0,2
12.11.2019 07:00:00 4,7 1,9 21 11 - - W 1003,1 45 0 0,2
12.11.2019 06:00:00 5,1 2,5 24 13 - - WNW 1003,9 15 0 0,4
12.11.2019 05:00:00 4,7 2,8 11 6 - - WNW 1003,7 35 0 0,6
12.11.2019 04:00:00 5,4 3,1 15 8 - - W 1003,6 27 0 0,6
12.11.2019 03:00:00 4,7 3,4 8 4 - - W 1004,2 35 0 0,2
12.11.2019 02:00:00 4,8 3,0 15 8 - - NW 1004,1 35 0 1,2
12.11.2019 01:00:00 5,8 3,1 11 6 - - WNW 1004,2 25 0 0,0
12.11.2019 00:00:00 5,9 2,9 11 6 - - WNW 1004,4 45 - 0,2
11.11.2019 23:00:00 6,5 3,4 16 9 - - WNW 1004,4 35 0 0,0
11.11.2019 22:00:00 6,0 4,0 5 3 - - NW 1004,6 30 0 0,4
11.11.2019 21:00:00 5,7 3,5 8 4 - - W 1004,9 30 0 0,0
11.11.2019 20:00:00 5,6 3,8 5 3 - - NE 1005,2 30 0 0,0
11.11.2019 19:00:00 6,7 4,0 16 9 52 28 W 1005,4 5 0 0,2
11.11.2019 18:00:00 6,7 4,0 15 8 - - W 1005,3 30 0 0,0
11.11.2019 17:00:00 6,7 3,4 22 12 - - W 1005,2 40 0 0,2
11.11.2019 16:00:00 8,6 3,3 24 13 - - W 1005,0 21 24 0,0
11.11.2019 15:00:00 9,2 3,5 21 11 46 25 W 1005,4 21 54 0,0
11.11.2019 14:00:00 8,4 3,9 8 4 46 25 NNW 1005,7 30 24 0,6
11.11.2019 13:00:00 8,4 5,3 16 9 46 25 NW 1006,3 5 30 1,2
11.11.2019 12:00:00 8,0 3,9 26 14 50 27 W 1006,1 13 30 0,2
11.11.2019 11:00:00 8,4 4,4 22 12 50 27 W 1006,5 24 18 0,4
11.11.2019 10:00:00 7,7 4,9 13 7 - - W 1006,2 27 24 0,0
11.11.2019 09:00:00 7,0 4,1 11 6 - - W 1006,1 26 0 0,0
11.11.2019 08:00:00 6,5 4,3 11 6 - - WNW 1005,9 25 0 0,6
11.11.2019 07:00:00 6,8 3,8 18 10 - - WNW 1005,2 5 0 0,2
11.11.2019 06:00:00 6,8 4,2 24 13 - - WNW 1004,6 23 0 0,6
11.11.2019 05:00:00 7,6 5,1 16 9 - - W 1004,3 20 0 0,0
11.11.2019 04:00:00 7,3 5,4 9 5 - - WNW 1003,7 21 0 1,4
11.11.2019 03:00:00 8,0 6,8 22 12 - - SW 1004,6 11 0 0,2
11.11.2019 02:00:00 8,5 6,5 24 13 - - SSW 1004,9 60 0 0,0
11.11.2019 01:00:00 8,7 7,5 18 10 - - SSW 1006,4 25 0 0,4
11.11.2019 00:00:00 7,0 6,4 8 4 - - W 1008,2 3,3 - 1,6
10.11.2019 23:00:00 7,0 6,3 8 4 - - SSW 1009,2 4,0 0 0,8
10.11.2019 22:00:00 6,0 5,1 5 3 - - ESE 1011,1 4,6 0 0,2
10.11.2019 21:00:00 5,7 4,7 2 1 - - NNE 1012,4 12 0 0,0
10.11.2019 20:00:00 5,7 4,2 2 1 - - E 1011,8 19 0 0,0
10.11.2019 19:00:00 6,6 4,8 5 3 - - SSE 1011,5 27 0 0,0
10.11.2019 18:00:00 5,2 4,3 13 7 - - ESE 1012,4 24 0 0,0
10.11.2019 17:00:00 5,5 3,2 2 1 - - W 1014,6 27 0 0,0
10.11.2019 16:00:00 6,3 3,5 5 3 - - ENE 1014,5 30 0 0,0
10.11.2019 15:00:00 8,4 4,5 8 4 - - NNE 1014,8 35 54 0,0
10.11.2019 14:00:00 8,8 4,7 11 6 - - N 1014,6 40 48 0,0
10.11.2019 13:00:00 8,4 4,8 9 5 - - NNE 1014,6 40 36 0,0
10.11.2019 12:00:00 8,2 4,5 13 7 - - NE 1013,9 40 24 0,0
10.11.2019 11:00:00 7,0 3,8 15 8 - - NE 1014,3 40 6 0,0
10.11.2019 10:00:00 6,7 3,9 15 8 - - NE 1013,8 45 0 0,0
10.11.2019 09:00:00 6,0 3,6 16 9 - - NNE 1012,9 40 0 0,0
10.11.2019 08:00:00 6,1 4,3 18 10 - - NNE 1011,4 40 0 0,0
10.11.2019 07:00:00 6,1 4,5 18 10 - - NNE 1009,6 9 0 0,0
10.11.2019 06:00:00 5,9 4,5 21 11 - - NNE 1008,0 35 0 0,2
10.11.2019 05:00:00 4,8 3,1 18 10 - - N 1007,7 15 0 0,2
10.11.2019 04:00:00 5,4 3,0 18 10 - - N 1006,5 60 0 0,0
10.11.2019 03:00:00 5,9 4,0 16 9 - - N 1005,4 24 0 0,0
10.11.2019 02:00:00 5,6 4,4 13 7 - - NNE 1004,8 12 0 0,0
10.11.2019 01:00:00 7,4 6,0 16 9 - - NNW 1003,2 45 0 0,2
10.11.2019 00:00:00 7,5 5,4 13 7 - - NW 1003,1 8 - 0,2
09.11.2019 23:00:00 6,7 5,5 8 4 - - NW 1003,0 30 0 0,0
09.11.2019 22:00:00 7,0 5,1 22 12 - - NW 1003,1 15 0 0,6
09.11.2019 21:00:00 7,6 4,9 18 10 - - WNW 1002,8 35 0 0,0
09.11.2019 20:00:00 7,3 4,8 15 8 - - WNW 1002,8 30 0 0,0
09.11.2019 19:00:00 6,8 4,8 11 6 - - NW 1002,9 40 0 0,4
09.11.2019 18:00:00 7,1 5,0 18 10 - - WNW 1002,8 40 0 0,0
09.11.2019 17:00:00 7,2 5,7 11 6 - - WNW 1002,3 15 0 0,2
09.11.2019 16:00:00 7,8 5,9 13 7 - - WNW 1001,6 35 24 0,0
09.11.2019 15:00:00 8,2 6,1 16 9 - - WNW 1001,1 50 18 0,6
09.11.2019 14:00:00 9,7 5,8 15 8 - - W 1000,8 40 60 0,0
09.11.2019 13:00:00 9,4 6,4 4 2 - - WSW 1001,3 5 48 0,0
09.11.2019 12:00:00 7,0 6,3 4 2 - - W 1001,6 40 6 0,8
09.11.2019 11:00:00 6,3 5,3 5 3 - - NNW 1002,6 2,6 0 5,2
09.11.2019 10:00:00 8,7 8,4 13 7 - - S 1002,6 3,9 0 1,8
09.11.2019 09:00:00 2,5 2,5 8 4 - - E 1004,4 6 0 0,8
09.11.2019 08:00:00 -0,3 -0,5 2 1 - - WSW 1005,8 7 0 0,0
09.11.2019 07:00:00 -1,5 -1,6 2 1 - - N 1007,5 12 0 0,0
09.11.2019 06:00:00 -2,7 -2,9 2 1 - - ENE 1008,9 8 0 0,0
09.11.2019 05:00:00 -3,0 -3,3 4 2 - - ENE 1010,0 7 0 0,0
09.11.2019 04:00:00 -3,1 -3,4 2 1 - - WNW 1011,3 7 0 0,0
09.11.2019 03:00:00 -2,5 -2,8 0 0 - - N 1012,0 4,9 0 0,0
09.11.2019 02:00:00 -2,9 -3,2 4 2 - - ENE 1012,9 0,5 0 0,0
09.11.2019 01:00:00 -1,6 -1,9 2 1 - - E 1013,9 4,6 0 0,0
09.11.2019 00:00:00 -0,8 -1,1 0 0 - - N 1013,8 6 - 0,0
08.11.2019 23:00:00 -0,9 -1,4 2 1 - - NE 1013,7 3,4 0 0,0
08.11.2019 22:00:00 0,7 0,2 4 2 - - E 1013,9 10 0 0,0
08.11.2019 21:00:00 0,9 0,0 2 1 - - ESE 1014,0 18 0 0,0
08.11.2019 20:00:00 2,3 1,2 2 1 - - SSE 1013,4 26 0 0,0
08.11.2019 19:00:00 5,2 2,7 5 3 - - NW 1012,9 40 0 0,0
08.11.2019 18:00:00 5,3 2,9 5 3 - - WNW 1012,7 40 0 0,0
08.11.2019 17:00:00 7,4 3,1 8 4 - - NW 1012,1 45 24 0,0
08.11.2019 16:00:00 8,9 3,3 11 6 - - N 1011,3 45 60 0,0
08.11.2019 15:00:00 9,7 3,7 15 8 - - N 1010,6 45 54 0,0
08.11.2019 14:00:00 9,7 4,3 18 10 - - N 1010,0 40 54 0,0
08.11.2019 13:00:00 9,9 4,5 13 7 - - NNE 1009,6 40 60 0,0
08.11.2019 12:00:00 9,4 4,1 16 9 - - NNE 1009,4 40 60 0,0
08.11.2019 11:00:00 9,0 5,3 11 6 - - NNE 1009,0 40 12 0,0
08.11.2019 10:00:00 7,9 5,2 16 9 - - NNE 1008,4 40 0 0,0
08.11.2019 09:00:00 7,2 5,8 9 5 - - NNE 1007,0 50 0 0,2
08.11.2019 08:00:00 5,9 5,9 9 5 - - N 1006,0 7 0 0,0
08.11.2019 07:00:00 2,3 2,2 4 2 - - NE 1004,9 9 0 0,2
08.11.2019 06:00:00 1,3 1,2 2 1 - - E 1003,8 18 0 0,0
08.11.2019 05:00:00 0,1 0,0 2 1 - - WSW 1002,9 18 0 0,0
08.11.2019 04:00:00 0,9 0,8 9 5 - - N 1001,7 20 0 0,0
08.11.2019 03:00:00 0,1 0,0 4 2 - - ENE 1001,0 11 0 0,0
08.11.2019 02:00:00 -0,9 -1,2 4 2 - - NE 1000,3 5 0 0,0
08.11.2019 01:00:00 -0,1 -0,5 4 2 - - NE 999,5 6 0 0,0
08.11.2019 00:00:00 0,8 0,6 4 2 - - ENE 998,7 6 - 0,0
07.11.2019 23:00:00 0,5 0,2 0 0 - - N 997,9 0,4 0 0,0
07.11.2019 22:00:00 2,0 1,6 4 2 - - ENE 997,2 6 0 0,0
07.11.2019 21:00:00 1,2 0,8 4 2 - - ENE 996,7 0,3 0 0,0
07.11.2019 20:00:00 2,8 2,4 5 3 - - NE 996,0 14 0 0,0
07.11.2019 19:00:00 3,3 2,7 2 1 - - ENE 995,3 8 0 0,0
07.11.2019 18:00:00 4,7 4,0 4 2 - - E 994,7 30 0 0,0
07.11.2019 17:00:00 6,1 4,8 2 1 - - W 994,3 25 0 0,2
07.11.2019 16:00:00 6,5 4,2 4 2 - - NE 993,8 50 0 0,0
07.11.2019 15:00:00 7,3 4,4 11 6 - - ENE 993,6 60 12 0,0
07.11.2019 14:00:00 9,8 3,4 16 9 - - WSW 993,2 45 24 0,0
07.11.2019 13:00:00 11,1 5,1 15 8 - - WSW 993,2 45 60 0,0
07.11.2019 12:00:00 9,9 4,0 11 6 - - SW 993,5 60 42 0,0
07.11.2019 11:00:00 8,6 4,2 18 10 - - WSW 993,9 50 30 0,0
07.11.2019 10:00:00 8,5 4,1 11 6 - - S 993,5 40 54 0,0
07.11.2019 09:00:00 7,0 3,7 9 5 - - S 993,5 45 54 0,0
07.11.2019 08:00:00 4,0 2,9 9 5 - - S 993,4 35 0 0,0
07.11.2019 07:00:00 4,4 3,1 2 1 - - SW 993,3 35 0 0,0
07.11.2019 06:00:00 4,7 2,3 5 3 - - W 993,2 28 0 0,0
07.11.2019 05:00:00 4,9 3,5 11 6 - - WSW 993,3 35 0 0,0
07.11.2019 04:00:00 4,7 3,3 2 1 - - W 993,2 35 0 0,0
07.11.2019 03:00:00 5,6 4,1 8 4 - - W 993,4 30 0 0,0
07.11.2019 02:00:00 5,9 4,7 5 3 - - WNW 993,6 29 0 0,0
07.11.2019 01:00:00 6,6 5,2 8 4 - - W 993,7 35 0 0,0
07.11.2019 00:00:00 7,9 5,4 18 10 - - WNW 993,9 60 - 0,2
06.11.2019 23:00:00 8,3 7,2 9 5 - - W 994,2 40 0 0,0
06.11.2019 22:00:00 8,6 7,8 11 6 - - WSW 994,8 55 0 0,2
06.11.2019 21:00:00 8,5 7,3 8 4 - - S 995,0 70 0 1,8
06.11.2019 20:00:00 8,9 8,3 13 7 - - S 996,2 4,7 0 3,6
06.11.2019 19:00:00 9,1 7,8 5 3 - - S 997,4 4,2 0 0,2
06.11.2019 18:00:00 9,0 7,8 8 4 - - SSE 998,5 40 0 0,4
06.11.2019 17:00:00 9,5 7,3 13 7 - - S 999,4 14 0 0,0
06.11.2019 16:00:00 10,4 6,9 11 6 - - SSW 1000,3 14 0 0,0
06.11.2019 15:00:00 10,9 6,5 13 7 - - SSW 1001,2 21 0 0,0

tt = temperature
td = dewpoint
ff = wind speed
fx = gusts
dd = wind direction
ppp = reduced air pressure
vv = visibility
sd = sunshine duration
rr = precipitation

Next stations